• In Hungary
  • List of Countries
  • For 7 days
  • Water Temperature
  • Satellite Maps
  • Weather Map
  • News
  • Weather Widgets
  • user-avatar
    Login

    Hourly Weather Blatnia

    Today, 19 September, Wednesday

    Time Temperature Precipitation Wind Pressure Humidity
    00:00 +12°C° 0 mm 2 mps 691 mmHg 76%
    01:00 +12°C° 0 mm 2 mps 691 mmHg 75%
    02:00 +12°C° 0 mm 2 mps 691 mmHg 75%
    03:00 +12°C° 0 mm 2 mps 691 mmHg 75%
    04:00 +10°C° 0 mm 2 mps 691 mmHg 75%
    05:00 +12°C° 0 mm 2 mps 691 mmHg 72%
    06:00 +13°C° 0 mm 2 mps 692 mmHg 69%
    07:00 +13°C° 0 mm 2 mps 692 mmHg 67%
    08:00 +16°C° 0 mm 2 mps 692 mmHg 59%
    09:00 +18°C° 0 mm 3 mps 693 mmHg 51%
    10:00 +20°C° 0 mm 3 mps 694 mmHg 43%
    11:00 +21°C° 0 mm 3 mps 694 mmHg 42%
    12:00 +22°C° 0 mm 3 mps 694 mmHg 41%
    13:00 +24°C° 0 mm 3 mps 694 mmHg 39%
    14:00 +22°C° 0 mm 3 mps 693 mmHg 42%
    15:00 +23°C° 0 mm 2 mps 693 mmHg 45%
    16:00 +23°C° 0 mm 2 mps 693 mmHg 47%
    17:00 +20°C° 0 mm 2 mps 693 mmHg 54%
    18:00 +17°C° 0 mm 2 mps 692 mmHg 60%
    19:00 +15°C° 0 mm 1 mps 692 mmHg 66%
    20:00 +15°C° 0 mm 1 mps 692 mmHg 68%
    21:00 +14°C° 0 mm 2 mps 692 mmHg 69%
    22:00 +14°C° 0 mm 2 mps 692 mmHg 71%
    23:00 +13°C° 0 mm 2 mps 692 mmHg 71%

    Tomorrow, 20 September, Thursday

    Time Temperature Precipitation Wind Pressure Humidity
    00:00 +13°C° 0 mm 2 mps 692 mmHg 72%
    01:00 +13°C° 0 mm 2 mps 692 mmHg 72%
    02:00 +12°C° 0 mm 2 mps 692 mmHg 73%
    03:00 +12°C° 0 mm 1 mps 692 mmHg 74%
    04:00 +12°C° 0 mm 1 mps 692 mmHg 75%
    05:00 +13°C° 0 mm 1 mps 692 mmHg 73%
    06:00 +14°C° 0 mm 1 mps 692 mmHg 71%
    07:00 +14°C° 0 mm 1 mps 693 mmHg 69%
    08:00 +18°C° 0 mm 1 mps 693 mmHg 61%
    09:00 +20°C° 0 mm 1 mps 694 mmHg 54%
    10:00 +22°C° 0 mm 1 mps 694 mmHg 46%
    11:00 +23°C° 0 mm 1 mps 694 mmHg 44%
    12:00 +24°C° 0 mm 1 mps 694 mmHg 41%
    13:00 +25°C° 0 mm 1 mps 694 mmHg 39%
    14:00 +24°C° 0 mm 1 mps 694 mmHg 41%
    15:00 +24°C° 0 mm 1 mps 693 mmHg 43%
    16:00 +24°C° 0 mm 1 mps 693 mmHg 45%
    17:00 +22°C° 0 mm 1 mps 693 mmHg 51%
    18:00 +19°C° 0 mm 1 mps 692 mmHg 58%
    19:00 +16°C° 0 mm 1 mps 692 mmHg 64%
    20:00 +16°C° 0 mm 1 mps 692 mmHg 66%
    21:00 +15°C° 0 mm 1 mps 692 mmHg 67%
    22:00 +15°C° 0 mm 1 mps 691 mmHg 69%
    23:00 +14°C° 0 mm 1 mps 691 mmHg 70%

    Day after tomorrow, 21 September, Friday

    Time Temperature Precipitation Wind Pressure Humidity
    00:00 +14°C° 0 mm 1 mps 691 mmHg 72%
    01:00 +14°C° 0 mm 2 mps 691 mmHg 73%
    02:00 +13°C° 0 mm 2 mps 691 mmHg 73%
    03:00 +13°C° 0 mm 2 mps 690 mmHg 74%
    04:00 +13°C° 0 mm 2 mps 690 mmHg 74%
    05:00 +13°C° 0 mm 2 mps 690 mmHg 72%
    06:00 +14°C° 0 mm 2 mps 690 mmHg 70%
    07:00 +15°C° 0 mm 2 mps 690 mmHg 69%
    08:00 +17°C° 0 mm 2 mps 691 mmHg 60%
    09:00 +20°C° 0 mm 3 mps 691 mmHg 51%
    10:00 +22°C° 0 mm 3 mps 691 mmHg 42%
    11:00 +23°C° 0 mm 4 mps 691 mmHg 41%
    12:00 +23°C° 0 mm 4 mps 691 mmHg 40%
    13:00 +25°C° 0 mm 5 mps 690 mmHg 38%
    14:00 +23°C° 0 mm 5 mps 690 mmHg 41%
    15:00 +23°C° 0 mm 4 mps 690 mmHg 43%
    16:00 +22°C° 0 mm 4 mps 689 mmHg 45%
    17:00 +21°C° 0 mm 4 mps 689 mmHg 49%
    18:00 +19°C° 0 mm 3 mps 688 mmHg 54%
    19:00 +17°C° 0 mm 3 mps 688 mmHg 58%
    20:00 +17°C° 0 mm 3 mps 688 mmHg 57%
    21:00 +16°C° 0 mm 3 mps 688 mmHg 56%
    22:00 +16°C° 0 mm 3 mps 688 mmHg 55%
    23:00 +16°C° 0 mm 3 mps 688 mmHg 56%

    22 September, Saturday

    Time Temperature Precipitation Wind Pressure Humidity
    00:00 +14°C° 0 mm 3 mps 688 mmHg 56%
    01:00 +14°C° 0 mm 3 mps 688 mmHg 56%
    02:00 +13°C° 0.1 mm 3 mps 689 mmHg 62%
    03:00 +12°C° 0.1 mm 3 mps 689 mmHg 68%
    04:00 +11°C° 0.1 mm 3 mps 689 mmHg 74%
    05:00 +10°C° 0.9 mm 3 mps 690 mmHg 78%
    06:00 +9°C° 0.9 mm 3 mps 690 mmHg 82%
    07:00 +8°C° 0.9 mm 3 mps 690 mmHg 87%
    08:00 +8°C° 1.1 mm 3 mps 691 mmHg 87%
    09:00 +7°C° 1.1 mm 2 mps 691 mmHg 87%
    10:00 +7°C° 1.1 mm 2 mps 692 mmHg 87%
    11:00 +7°C° 1.9 mm 2 mps 692 mmHg 87%
    12:00 +6°C° 1.9 mm 2 mps 692 mmHg 88%
    13:00 +6°C° 1.9 mm 2 mps 692 mmHg 88%
    14:00 +6°C° 0.9 mm 2 mps 692 mmHg 87%
    15:00 +6°C° 0.9 mm 2 mps 692 mmHg 85%
    16:00 +6°C° 0.9 mm 2 mps 691 mmHg 84%
    17:00 +6°C° 0 mm 2 mps 691 mmHg 85%
    18:00 +5°C° 0 mm 2 mps 691 mmHg 87%
    19:00 +5°C° 0 mm 2 mps 691 mmHg 89%
    20:00 +4°C° 0 mm 2 mps 692 mmHg 89%
    21:00 +4°C° 0 mm 2 mps 692 mmHg 90%
    22:00 +4°C° 0 mm 2 mps 692 mmHg 90%
    23:00 +4°C° 0 mm 2 mps 692 mmHg 90%

    23 September, Sunday

    Time Temperature Precipitation Wind Pressure Humidity
    00:00 +4°C° 0 mm 2 mps 692 mmHg 91%
    01:00 +4°C° 0 mm 2 mps 692 mmHg 91%
    02:00 +4°C° 0 mm 2 mps 692 mmHg 91%
    03:00 +4°C° 0 mm 2 mps 692 mmHg 91%
    04:00 +4°C° 0 mm 2 mps 692 mmHg 91%
    05:00 +4°C° 0 mm 2 mps 692 mmHg 89%
    06:00 +5°C° 0 mm 2 mps 692 mmHg 87%
    07:00 +5°C° 0 mm 2 mps 692 mmHg 85%
    08:00 +7°C° 0 mm 2 mps 693 mmHg 75%
    09:00 +9°C° 0 mm 3 mps 693 mmHg 66%
    10:00 +11°C° 0 mm 3 mps 693 mmHg 57%
    11:00 +12°C° 0 mm 3 mps 693 mmHg 52%
    12:00 +13°C° 0 mm 3 mps 692 mmHg 48%
    13:00 +13°C° 0 mm 3 mps 692 mmHg 44%
    14:00 +13°C° 0 mm 3 mps 691 mmHg 46%
    15:00 +13°C° 0 mm 3 mps 690 mmHg 48%
    16:00 +13°C° 0 mm 3 mps 690 mmHg 50%
    17:00 +12°C° 0 mm 3 mps 689 mmHg 55%
    18:00 +10°C° 0 mm 3 mps 688 mmHg 60%
    19:00 +9°C° 0 mm 3 mps 687 mmHg 65%
    20:00 +8°C° 0 mm 4 mps 686 mmHg 62%
    21:00 +8°C° 0 mm 5 mps 685 mmHg 59%
    22:00 +9°C° 0 mm 5 mps 683 mmHg 57%
    23:00 +9°C° 0 mm 5 mps 683 mmHg 56%

    24 September, Monday

    Time Temperature Precipitation Wind Pressure Humidity
    00:00 +9°C° 0 mm 5 mps 682 mmHg 55%
    01:00 +10°C° 0 mm 5 mps 681 mmHg 54%
    02:00 +9°C° 0.1 mm 5 mps 680 mmHg 58%
    03:00 +10°C° 0.1 mm 4 mps 679 mmHg 63%
    04:00 +10°C° 0.1 mm 4 mps 678 mmHg 68%
    05:00 +9°C° 1.1 mm 5 mps 679 mmHg 73%
    06:00 +8°C° 1.1 mm 5 mps 679 mmHg 78%
    07:00 +8°C° 1.1 mm 6 mps 679 mmHg 83%
    08:00 +8°C° 0.3 mm 7 mps 679 mmHg 80%
    09:00 +8°C° 0.3 mm 7 mps 678 mmHg 77%
    10:00 +9°C° 0.3 mm 8 mps 678 mmHg 74%
    11:00 +8°C° 0.3 mm 9 mps 679 mmHg 74%
    12:00 +8°C° 0.3 mm 9 mps 679 mmHg 73%
    13:00 +7°C° 0.3 mm 10 mps 679 mmHg 73%
    14:00 +7°C° 0.3 mm 10 mps 680 mmHg 72%
    15:00 +6°C° 0.3 mm 10 mps 681 mmHg 72%
    16:00 +5°C° 0.3 mm 9 mps 682 mmHg 71%
    17:00 +5°C° 0.4 mm 9 mps 683 mmHg 72%
    18:00 +5°C° 0.4 mm 9 mps 683 mmHg 73%
    19:00 +3°C° 0.4 mm 9 mps 684 mmHg 74%
    20:00 +3°C° 0.4 mm 9 mps 685 mmHg 75%
    21:00 +3°C° 0.4 mm 9 mps 685 mmHg 76%
    22:00 +3°C° 0.4 mm 9 mps 686 mmHg 77%
    23:00 +3°C° 0.4 mm 9 mps 686 mmHg 78%
    Show more